TimeCDT,TemperatureF,Dew PointF,Humidity,Sea Level PressureIn,VisibilityMPH,Wind Direction,Wind SpeedMPH,Gust SpeedMPH,PrecipitationIn,Events,Conditions,WindDirDegrees,DateUTC
12:55 AM,36.0,32.0,86,30.09,10.0,Calm,Calm,-,N/A,,Clear,0,2013-03-15 05:55:00
1:55 AM,32.0,28.9,88,30.06,7.0,Calm,Calm,-,N/A,,Clear,0,2013-03-15 06:55:00
2:55 AM,28.9,27.0,92,30.04,6.0,Calm,Calm,-,N/A,,Clear,0,2013-03-15 07:55:00
3:55 AM,28.9,27.0,92,30.02,3.0,Calm,Calm,-,N/A,,Clear,0,2013-03-15 08:55:00
4:55 AM,28.0,26.1,92,29.99,3.0,Calm,Calm,-,N/A,,Clear,0,2013-03-15 09:55:00
5:55 AM,28.0,26.1,92,29.99,7.0,West,3.5,-,N/A,,Clear,260,2013-03-15 10:55:00
6:55 AM,28.0,26.1,92,29.98,7.0,WSW,3.5,-,N/A,,Clear,250,2013-03-15 11:55:00
7:55 AM,34.0,30.9,89,29.97,6.0,Calm,Calm,-,N/A,,Clear,0,2013-03-15 12:55:00
8:55 AM,37.9,35.1,89,29.97,5.0,Calm,Calm,-,N/A,,Clear,0,2013-03-15 13:55:00
9:55 AM,43.0,37.9,82,29.95,7.0,SE,3.5,-,N/A,,Clear,130,2013-03-15 14:55:00
10:55 AM,50.0,42.1,74,29.94,8.0,ESE,5.8,-,N/A,,Clear,120,2013-03-15 15:55:00
11:55 AM,57.9,45.0,62,29.88,10.0,SE,9.2,-,N/A,,Clear,140,2013-03-15 16:55:00
12:55 PM,62.1,45.0,53,29.83,10.0,SE,12.7,-,N/A,,Clear,130,2013-03-15 17:55:00
1:55 PM,64.9,46.9,52,29.78,10.0,SSE,16.1,-,N/A,,Clear,150,2013-03-15 18:55:00
2:55 PM,68.0,50.0,52,29.73,10.0,SE,9.2,-,N/A,,Clear,130,2013-03-15 19:55:00
3:55 PM,69.1,46.9,45,29.72,10.0,SSW,15.0,20.7,N/A,,Clear,210,2013-03-15 20:55:00
4:55 PM,70.0,48.0,46,29.70,10.0,WSW,3.5,-,N/A,,Clear,240,2013-03-15 21:55:00
5:55 PM,70.0,48.0,46,29.68,10.0,Calm,Calm,-,N/A,,Clear,0,2013-03-15 22:55:00
6:55 PM,63.0,51.1,65,29.69,10.0,ENE,3.5,-,N/A,,Clear,70,2013-03-15 23:55:00
7:55 PM,55.9,48.0,75,29.70,10.0,NE,11.5,-,N/A,,Clear,50,2013-03-16 00:55:00
8:55 PM,52.0,45.0,77,29.70,10.0,ENE,5.8,-,N/A,,Clear,60,2013-03-16 01:55:00
9:55 PM,48.9,44.1,83,29.70,10.0,ENE,6.9,-,N/A,,Clear,60,2013-03-16 02:55:00
10:55 PM,42.1,39.9,92,29.70,8.0,NNE,6.9,-,N/A,,Clear,30,2013-03-16 03:55:00